sat.trackr.live / text

‹ back to catalog

STARLINK-5813

NORAD 55790 · 2023-028BB

PAYLOAD ACTIVE UNKNOWN

§ Identity

Operator
Country
US
Launch date
2023-03-03
Launch site
AFWTR
Launch vehicle
Mass (kg)
RCS (m²)

Purposes: comms

External: N2YO · Heavens-Above · Gunter

§ Orbital elements

Epoch: 2026-05-25T01:01:27.259104Z

Period
96.11 min
Inclination
69.9999°
Eccentricity
0.0002871
Mean motion
14.98324878 rev/d
Perigee alt
570.1 km
Apogee alt
574.1 km
Semi-major
6,950.2 km
B*
7.8640e-5
RAAN
11.9239°
Arg perigee
269.5347°
Mean anomaly
90.5483°
Rev number
17,846

§ Raw data

STARLINK-58131 55790U 23028BB  26145.04267661  .00000845  00000+0  78640-4 0  99962 55790  69.9999  11.9239 0002871 269.5347  90.5483 14.98324878178467

JSON: /api/v1/satellites/55790 · /tle

For live sub-satellite position, see the globe view (requires WebGL).

§ Visibility from observer

Set your observer location to see the next 7 days of passes ≥ 10°. The values pass through the URL so the page stays shareable.

No JS? Fill the form by hand. The geolocation button needs JavaScript.